| time (UTC) | temp C | wind direction | speed KPH | gust KPH | rain 1hr cm | rain 24hr cm | rain mn cm | humidity % | barometer mb |
| 20260504044533 | 6 | 226 | 4.8 | 16.1 | 0.00 | 0.00 | 0.00 | 60 | 1014.5 |
| 20260504041517 | 6 | 196 | 3.2 | 11.3 | 0.00 | 0.00 | 0.00 | 59 | 1014.3 |
| 20260504040020 | 6 | 180 | 4.8 | 14.5 | 0.00 | 0.00 | 0.00 | 58 | 1014.5 |
| 20260504034517 | 6 | 197 | 4.8 | 11.3 | 0.00 | 0.00 | 0.00 | 58 | 1014.4 |
| 20260504031518 | 7 | 195 | 3.2 | 11.3 | 0.00 | 0.00 | 0.00 | 58 | 1014.5 |
| 20260504030014 | 7 | 241 | 4.8 | 12.9 | 0.00 | 0.00 | 0.00 | 57 | 1014.6 |
| 20260504024514 | 7 | 192 | 3.2 | 12.9 | 0.00 | 0.00 | 0.00 | 56 | 1014.7 |
| 20260504021518 | 7 | 239 | 4.8 | 11.3 | 0.00 | 0.00 | 0.00 | 54 | 1014.9 |
| 20260504020015 | 7 | 230 | 3.2 | 11.3 | 0.00 | 0.00 | 0.00 | 54 | 1014.9 |
| 20260504014514 | 8 | 195 | 3.2 | 12.9 | 0.00 | 0.00 | 0.00 | 53 | 1014.6 |
| 20260504011513 | 8 | 215 | 3.2 | 19.3 | 0.00 | 0.00 | 0.00 | 51 | 1014.4 |
| 20260504010013 | 8 | 209 | 4.8 | 16.1 | 0.00 | 0.00 | 0.00 | 51 | 1014.6 |
| 20260504004518 | 8 | 195 | 4.8 | 14.5 | 0.00 | 0.00 | 0.00 | 50 | 1014.3 |
| 20260504001512 | 9 | 197 | 4.8 | 17.7 | 0.00 | 0.00 | 0.00 | 49 | 1014.3 |
| 20260504000012 | 9 | 246 | 4.8 | 19.3 | 0.00 | 0.00 | 0.00 | 49 | 1014.2 |
| 20260503234517 | 9 | 277 | 6.4 | 22.5 | 0.00 | 0.00 | 0.00 | 47 | 1014.1 |
| 20260503231520 | 10 | 239 | 4.8 | 16.1 | 0.00 | 0.00 | 0.00 | 47 | 1014.1 |
| 20260503230017 | 10 | 259 | 11.3 | 29.0 | 0.00 | 0.00 | 0.00 | 46 | 1014.0 |
| 20260503224515 | 10 | 246 | 14.5 | 30.6 | 0.00 | 0.00 | 0.00 | 46 | 1014.1 |
| 20260503221512 | 10 | 242 | 9.7 | 19.3 | 0.00 | 0.00 | 0.00 | 46 | 1014.0 |
| 20260503220012 | 10 | 223 | 9.7 | 22.5 | 0.00 | 0.00 | 0.00 | 46 | 1014.2 |
| 20260503214532 | 10 | 202 | 8.0 | 27.4 | 0.00 | 0.00 | 0.00 | 46 | 1014.1 |
| 20260503211512 | 10 | 245 | 9.7 | 24.1 | 0.00 | 0.00 | 0.00 | 45 | 1014.1 |
| 20260503210010 | 10 | 285 | 6.4 | 29.0 | 0.00 | 0.00 | 0.00 | 46 | 1014.1 |
| 20260503204508 | 10 | 228 | 9.7 | 25.7 | 0.00 | 0.00 | 0.00 | 47 | 1014.1 |
| 20260503201503 | 9 | 236 | 12.9 | 24.1 | 0.00 | 0.00 | 0.00 | 49 | 1014.3 |
| 20260503200001 | 8 | 246 | 12.9 | 27.4 | 0.00 | 0.00 | 0.00 | 50 | 1014.5 |
| 20260503194605 | 9 | 250 | 11.3 | 25.7 | 0.00 | 0.00 | 0.00 | 49 | 1014.7 |
| 20260503191604 | 9 | 220 | 14.5 | 27.4 | 0.00 | 0.00 | 0.00 | 48 | 1015.0 |
| 20260503190054 | 9 | 241 | 8.0 | 25.7 | 0.00 | 0.00 | 0.00 | 49 | 1015.2 |
| 20260503184604 | 8 | 244 | 11.3 | 19.3 | 0.00 | 0.00 | 0.00 | 48 | 1015.1 |
| 20260503181608 | 8 | 270 | 17.7 | 30.6 | 0.00 | 0.00 | 0.00 | 47 | 1015.4 |
| 20260503180107 | 8 | 251 | 12.9 | 32.2 | 0.00 | 0.00 | 0.00 | 48 | 1015.5 |
| 20260503174556 | 9 | 270 | 9.7 | 30.6 | 0.00 | 0.00 | 0.00 | 46 | 1015.4 |
| 20260503171555 | 8 | 278 | 8.0 | 25.7 | 0.00 | 0.00 | 0.00 | 44 | 1015.6 |
| 20260503081543 | 0 | 260 | 8.0 | 16.1 | 0.00 | 0.00 | 0.00 | 85 | 1016.0 |
| 20260503071530 | 0 | 253 | 4.8 | 19.3 | 0.00 | 0.00 | 0.00 | 84 | 1015.8 |
| 20260503054523 | 0 | 251 | 8.0 | 16.1 | 0.00 | 0.00 | 0.00 | 83 | 1016.2 |
| 20260503053122 | 0 | 263 | 4.8 | 16.1 | 0.00 | 0.00 | 0.00 | 83 | 1016.2 |
| 20260503051533 | 0 | 289 | 4.8 | 16.1 | 0.00 | 0.00 | 0.00 | 83 | 1016.5 |
| 20260503050023 | 0 | 263 | 3.2 | 11.3 | 0.00 | 0.00 | 0.00 | 83 | 1016.7 |